ATLAS 5 CENTAUR DEB, 44038

Orbit data source: Space-Track

ATLAS 5 CENTAUR DEB, 44038 is space debris in HEO originally from a launch on Wed, 17 Sep 2014 UTC launched from the Air Force Eastern Test Range (AFETR). Debris objects in space refer to the collection of defunct objects orbiting the Earth. Examples of debris include non-operational satellites, rocket bodies, and fragments generated from explosions, collisions, or faulty payload assembly.

Loading next visibility...
Identifier
44038, 2014-055BY
Orbit
HEO
Country
Flag of USUS
Related business
Flag of USUnited Launch Alliance/Lockheed Martin (US)
Manufacturer
Unknown
Mission
Spacecraft
Bus & Motor
Unknown
Mass
Unknown
Launch date (UTC)
2014-09-17 (11 years ago)
Launch vehicle
Unknown
Launch site
Air Force Eastern Test Range (AFETR)
Object type
Payload
Rocket body
Debris
Shape & HBR
Unknown shape, 1.1 m
Radar Cross Section
Small (<0.1 m²)

Expand to show TLE details & history
Last TLE update: 4 weeks ago

TLE from 4 weeks ago
0 ATLAS 5 CENTAUR DEB
1 44038U 14055BY  26036.46063569 -.00000021  00000-0  00000-0 0  9994
2 44038  19.1482 201.6223 4648289  64.4218 336.0100  1.76614920 46940
Epoch: 2026-02-05T11:03Z
TLE epoch observation values (Epoch: 2026-02-05T11:03:18.923Z)
Latitude
Longitude
-99.91559°
Altitude
12,521.348 km
Speed
5.329 km/s
True Right ascension
13h 26m 06s
True Declination
0° 00' 00"
Sunlit
Object was in daylight at epoch
Visualization orbit readout
Latitude
Unknown
Longitude
Unknown
Altitude
Unknown
Speed
Unknown
Apparent Right ascension
Unknown
Apparent Declination
Unknown
Sunlit
N/A
Visualization observer readout
Local Sidereal Time
08:15:07
Azimuth
Unknown
Elevation
Unknown
Doppler factor
Unknown
Orbital elements
Apogee altitude
35,972.999 km
Perigee altitude
9,094.731 km
Semi-major axis
28,912.002 km
Eccentricity
0.46483
Inclination
19.1482°
RAAN
201.6223°
Arg. of periapsis
64.4218°
True anomaly
295.5548°
Mean anomaly
336.01°
Eccentric anomaly
318.28943°
Mean motion
0.4415 °/min
Orbital period
815.41 mins
BSTAR
0
Loading maneuver chart data...
Computing Atmospheric mass density...

Documentation

Showing up to 5 results
|